Redmond, OR

7:08 AM PDT on July 26, 2017 (GMT -0700)
Roberts Field Airport

Weather History for KRDM - March, 2014

Change the Weather History Date:

Wednesday, March 5, 2014

  Actual Average Record
Temperature  
Mean Temperature 53 °F 38 °F  
Max Temperature 59 °F 51 °F 70 °F (1986)
Min Temperature 47 °F 25 °F -1 °F (1955)
Degree Days  
Heating Degree Days 12 27  
Month to date heating degree days 113 137  
Since 1 July heating degree days 4906 4810  
Cooling Degree Days 0 0  
Month to date cooling degree days 0 0  
Year to date cooling degree days 0 0  
Growing Degree Days 2 (Base 50)    
Moisture  
Dew Point 39 °F    
Average Humidity 59    
Maximum Humidity 66    
Minimum Humidity 51    
Precipitation  
Precipitation 0.01 in 0.02 in 0.49 in (1989)
Month to date precipitation 0.15 0.10  
Year to date precipitation 2.06 1.72  
Sea Level Pressure  
Sea Level Pressure 29.73 in    
Wind  
Wind Speed 15 mph (South)    
Max Wind Speed 32 mph    
Max Gust Speed 43 mph    
Visibility 10 miles    
Events Rain    
T = Trace of Precipitation, MM = Missing Value Source: NWS Daily Summary

Daily Weather History Graph

Daily Weather History Graph

Search for Another Location

Airport or City:

Trip Planner

Search our weather history database for the weather conditions in past years. The results will help you decide how hot, cold, wet, or windy it might be!

Date:

Astronomy

Mar. 05, 2014 Rise Set
Actual Time 6:34 AM PST 5:58 PM PST
Civil Twilight 6:05 AM PST 6:27 PM PST
Nautical Twilight 5:32 AM PST 7:00 PM PST
Astronomical Twilight 4:58 AM PST 7:34 PM PST
Moon 8:52 AM PST (3/5) 11:24 PM PST (3/5)
Length of Visible Light 12h 21m
Length of Day
11h 23m
Waxing Crescent, 24% of the Moon is Illuminated
Mar 5
Waxing Crescent
Mar 8
First Quarter
Mar 16
Full
Mar 23
Last Quarter
Mar 30
New

Hourly Weather History & Observations

Time (PST) Temp. Dew Point Humidity Pressure Visibility Wind Dir Wind Speed Gust Speed Precip Events Conditions
12:56 AM 48.0 °F 36.0 °F 63% 29.88 in 10.0 mi SSE 8.1 mph - N/A   Overcast
1:56 AM 46.9 °F 36.0 °F 66% 29.87 in 10.0 mi South 9.2 mph - N/A   Overcast
2:56 AM 46.9 °F 35.1 °F 63% 29.83 in 10.0 mi SSE 8.1 mph - N/A   Mostly Cloudy
3:56 AM 48.9 °F 35.1 °F 59% 29.81 in 10.0 mi South 16.1 mph 23.0 mph N/A   Scattered Clouds
4:56 AM 48.9 °F 36.0 °F 61% 29.81 in 10.0 mi South 18.4 mph - N/A   Overcast
5:56 AM 50.0 °F 36.0 °F 59% 29.81 in 10.0 mi South 13.8 mph - N/A   Overcast
6:56 AM 48.9 °F 37.0 °F 64% 29.81 in 10.0 mi South 10.4 mph - 0.00 in   Mostly Cloudy
7:56 AM 51.1 °F 37.9 °F 61% 29.82 in 10.0 mi South 19.6 mph 28.8 mph N/A   Overcast
8:56 AM 53.1 °F 39.0 °F 59% 29.82 in 10.0 mi South 17.3 mph 27.6 mph N/A   Mostly Cloudy
9:56 AM 54.0 °F 39.9 °F 59% 29.82 in 10.0 mi South 19.6 mph 26.5 mph 0.00 in Rain Light Rain
10:56 AM 57.9 °F 41.0 °F 53% 29.79 in 10.0 mi South 17.3 mph 25.3 mph 0.00 in   Overcast
11:56 AM 55.0 °F 42.1 °F 62% 29.81 in 10.0 mi South 16.1 mph 23.0 mph 0.00 in Rain Light Rain
12:56 PM 57.0 °F 42.1 °F 57% 29.76 in 10.0 mi South 21.9 mph 27.6 mph 0.00 in   Mostly Cloudy
1:56 PM 57.9 °F 41.0 °F 53% 29.72 in 10.0 mi SSE 10.4 mph - N/A   Overcast
2:56 PM 59.0 °F 41.0 °F 51% 29.68 in 10.0 mi SSW 13.8 mph - 0.00 in   Overcast
3:56 PM 57.0 °F 44.1 °F 62% 29.65 in 10.0 mi SSW 12.7 mph - 0.01 in Rain Light Rain
4:56 PM 57.9 °F 42.1 °F 56% 29.61 in 10.0 mi South 25.3 mph 32.2 mph 0.00 in   Partly Cloudy
5:56 PM 55.0 °F 42.1 °F 62% 29.61 in 10.0 mi South 15.0 mph 29.9 mph 0.00 in   Mostly Cloudy
6:56 PM 54.0 °F 42.1 °F 64% 29.58 in 10.0 mi SSE 10.4 mph 19.6 mph N/A   Mostly Cloudy
7:56 PM 53.1 °F 39.9 °F 61% 29.57 in 10.0 mi South 15.0 mph 23.0 mph N/A   Partly Cloudy
8:56 PM 51.1 °F 42.1 °F 71% 29.62 in 10.0 mi WSW 13.8 mph 24.2 mph 0.00 in Rain Light Rain
9:56 PM 51.1 °F 41.0 °F 68% 29.63 in 10.0 mi SSW 16.1 mph 26.5 mph 0.00 in   Overcast
10:56 PM 48.9 °F 37.0 °F 64% 29.64 in 10.0 mi SW 13.8 mph 25.3 mph N/A   Clear
11:56 PM 48.9 °F 33.1 °F 54% 29.65 in 10.0 mi SW 24.2 mph 39.1 mph N/A   Clear